[[{"header":{"parameterUnit":"m.s-1","parameterCategory":1,"la1":30.2991,"la2":30.254,"lo1":-89.0895,"lo2":-89.0444,"dy":0.0017,"dx":0.0017,"nx":28,"ny":28,"refTime":"2023-08-07T09:00:00:Z","depth":0,"parameterNumber":2,"parameterNumberName":"U-component_of_WINDS"},"data":[0,0,0,0,0,0,0,0,0,0,0,0,0,0,0,0,0,0,0,0,0,0,0,0,0,0,0,0,0,0,0,0,0,0,0,0,0,0,0,0,0,0,0,0,0,0,0,0,0,0,0,0,0,0,0,0,0,0,0.2704,0.2705,0,0.2854,0.2856,0.2857,0.2918,0.2918,0.2917,0.2917,0.3078,0.3082,0.3087,0,0,0,0,0,0,0,0,0,0,0,0,0,0.2479,0.2482,0.2703,0.2705,0.2707,0.2854,0.2856,0.2858,0.2918,0.2918,0.2917,0.2917,0.3076,0.3082,0.3087,0,0,0,0,0,0,0,0,0,0,0,0,0,0.2597,0.2484,0.2703,0.2755,0.2761,0.2853,0.2856,0.2858,0.2918,0.2918,0.2917,0.2917,0.3074,0.3081,0.3088,0.3142,0,0,0.3109,0.3112,0,0,0,0,0,0,0,0,0.2591,0.2606,0.2745,0.2751,0.2758,0.2867,0.2835,0.2954,0.2918,0.2859,0.2917,0.2916,0.3008,0.3021,0.305,0.3149,0.3156,0.311,0.3114,0.3117,0.3119,0,0,0,0,0,0,0,0.2582,0.26,0.2763,0.2747,0.2755,0.2774,0.279,0.2858,0.2935,0.2864,0.2869,0.2885,0.3012,0.3043,0.3055,0.3159,0.311,0.3116,0.312,0.3123,0.3317,0.3318,0,0,0,0,0,0,0.2564,0.2592,0.2758,0.2768,0.2671,0.2778,0.2797,0.2833,0.2934,0.2949,0.2886,0.2888,0.3032,0.3046,0.306,0.3135,0.3117,0.3123,0.3127,0.3316,0.3317,0.3319,0,0,0,0,0,0,0.2559,0.2579,0.2752,0.2681,0.2705,0.2783,0.2823,0.2836,0.2867,0.2951,0.2966,0.2903,0.3032,0.3051,0.3122,0.3141,0.3127,0.3133,0.3315,0.3317,0.3318,0.328,0,0,0,0,0,0,0.2553,0.2576,0.2595,0.2681,0.2708,0.2808,0.2824,0.2839,0.2878,0.2882,0.2971,0.2985,0.3033,0.3112,0.3129,0.315,0.3138,0.3314,0.3316,0.3318,0.328,0.328,0.328,0,0,0,0,0,0.2544,0.2578,0.2595,0.2615,0.2732,0.2809,0.2825,0.2877,0.2879,0.2901,0.2956,0.2983,0.3136,0.3118,0.3139,0.3162,0.3313,0.3315,0.3317,0.328,0.328,0.328,0,0,0,0,0,0,0.2492,0.259,0.261,0.2672,0.2732,0.2819,0.2847,0.2875,0.2936,0.2937,0.3002,0.3022,0.3089,0.3133,0.3112,0.3223,0.3227,0.3233,0.3192,0.3193,0.3193,0.3181,0.3144,0,0,0,0,0,0.2488,0.2539,0.2623,0.267,0.2699,0.2768,0.2803,0.2838,0.2903,0.2929,0.2989,0.3053,0.3117,0.3157,0.322,0.3287,0.3311,0.3314,0.3314,0.3314,0.3319,0.3364,0.3368,0.3326,0.3326,0.3326,0,0,0.248,0.2539,0.2568,0.2661,0.2711,0.2767,0.2788,0.2844,0.2888,0.2939,0.301,0.3057,0.3134,0.3205,0.3239,0.3243,0.3336,0.3317,0.3316,0.3321,0.3367,0.3371,0.3374,0.3328,0.3327,0.3327,0,0,0.2493,0.2541,0.2588,0.2639,0.2715,0.2762,0.2773,0.2857,0.289,0.2963,0.3004,0.3058,0.3164,0.3219,0.326,0.3301,0.333,0.332,0.3321,0.3364,0.3367,0.337,0.3389,0.3394,0.3325,0.3325,0.3325,0,0.2473,0.2555,0.2609,0.2665,0.2707,0.2756,0.2807,0.2854,0.2947,0.2977,0.298,0.3118,0.3173,0.326,0.3271,0.3301,0.3321,0.331,0.3362,0.3366,0.337,0.3388,0.3395,0.3323,0.3323,0.3323,0.3324,0,0.253,0.2587,0.2616,0.2705,0.275,0.2803,0.2869,0.291,0.2943,0.2991,0.3068,0.3136,0.3216,0.3239,0.3271,0.3333,0.3334,0.3348,0.3354,0.3371,0.339,0.3397,0.3321,0.3321,0.3322,0.3322,0,0,0.2511,0.2632,0.2642,0.2686,0.2776,0.2823,0.2881,0.2958,0.2993,0.3058,0.3111,0.3202,0.3218,0.3265,0.3306,0.3343,0.3377,0.3354,0.3357,0.3359,0.3455,0.3445,0.3452,0.3397,0.3398,0.3399,0.345,0,0.2539,0.2641,0.2694,0.2776,0.2832,0.2883,0.2934,0.2997,0.3045,0.3103,0.3157,0.3222,0.3236,0.3266,0.3305,0.3364,0.3398,0.3361,0.3451,0.3454,0.3432,0.3461,0.3449,0.3493,0.3457,0.3458,0.3459,0,0.2583,0.2647,0.2734,0.2823,0.2849,0.2893,0.2971,0.3024,0.31,0.3133,0.3188,0.3228,0.3297,0.3297,0.3395,0.3369,0.341,0.3445,0.3448,0.346,0.3458,0.3476,0.3508,0.3515,0.3471,0.347,0.3469,0,0.2565,0.2673,0.274,0.2775,0.288,0.2911,0.2957,0.3031,0.3076,0.3146,0.3177,0.3253,0.3296,0.3357,0.3419,0.3413,0.3513,0.3517,0.3546,0.3544,0.3565,0.3563,0.3606,0.3587,0.3587,0.3587,0.3587,0,0.259,0.2642,0.2734,0.2775,0.2838,0.2901,0.2962,0.3012,0.3079,0.3135,0.3184,0.3236,0.3314,0.3377,0.3427,0.3503,0.3521,0.3553,0.3566,0.355,0.3546,0.3578,0.3578,0.3589,0.3588,0.3588,0.3588,0,0.258,0.2642,0.272,0.2814,0.2839,0.2881,0.2964,0.3009,0.3061,0.3131,0.3152,0.3234,0.3312,0.338,0.3482,0.3516,0.3596,0.361,0.357,0.3577,0.3603,0.3601,0.367,0.3684,0.3653,0.3653,0.3653,0,0.2592,0.2634,0.2733,0.2773,0.2818,0.2882,0.2929,0.2995,0.3043,0.3135,0.317,0.3252,0.332,0.3443,0.3514,0.3595,0.3613,0.3632,0.3626,0.361,0.3618,0.3615,0.3623,0.3632,0.3632,0.3632,0.3632,0,0.2609,0.264,0.2704,0.2781,0.2836,0.29,0.2965,0.2997,0.3077,0.3128,0.3208,0.3261,0.3368,0.345,0.3539,0.3591,0.3627,0.3634,0.3646,0.363,0.3606,0.3623,0.3572,0.3632,0.3632,0.3632,0.3632,0.3632,0.2613,0.2654,0.2732,0.2804,0.2861,0.2923,0.2971,0.3031,0.3097,0.3188,0.3225,0.3307,0.3389,0.3513,0.3565,0.3634,0.364,0.3655,0.366,0.3663,0.3662,0.3594,0.365,0.365,0.365,0.365,0.365,0,0.2635,0.2689,0.2754,0.2846,0.2904,0.2932,0.3008,0.3056,0.3127,0.3199,0.3267,0.3362,0.3443,0.3523,0.3609,0.365,0.3669,0.3671,0.3669,0.3682,0.365,0.3633,0.3654,0.3654,0.3654,0.3654,0.3654,0.3654,0.2653,0.2727,0.2767,0.2872,0.2927,0.3007,0.3049,0.3109,0.3167,0.327,0.3338,0.3389,0.3466,0.356,0.3638,0.366,0.3691,0.3689,0.3716,0.3684,0.3683,0.3682,0.3666,0.3694,0.3694,0.3742,0.3743,0.3743]},{"header":{"parameterUnit":"m.s-1","parameterCategory":1,"la1":30.2991,"la2":30.254,"lo1":-89.0895,"lo2":-89.0444,"dy":0.0017,"dx":0.0017,"nx":28,"ny":28,"refTime":"2023-08-07T09:00:00:Z","depth":0,"parameterNumber":3,"parameterNumberName":"V-component_of_WINDS"},"data":[0,0,0,0,0,0,0,0,0,0,0,0,0,0,0,0,0,0,0,0,0,0,0,0,0,0,0,0,0,0,0,0,0,0,0,0,0,0,0,0,0,0,0,0,0,0,0,0,0,0,0,0,0,0,0,0,0,0,3.8838,3.8841,0,3.9072,3.9075,3.9077,3.9141,3.9139,3.9138,3.9137,3.937,3.9377,3.9384,0,0,0,0,0,0,0,0,0,0,0,0,0,3.844,3.8447,3.8838,3.8841,3.8844,3.9072,3.9075,3.9078,3.9141,3.9139,3.9137,3.9136,3.9367,3.9376,3.9385,0,0,0,0,0,0,0,0,0,0,0,0,0,3.8637,3.845,3.8837,3.8903,3.8911,3.9071,3.9075,3.9079,3.9141,3.9139,3.9137,3.9135,3.9364,3.9375,3.9386,3.9496,0,0,3.942,3.9425,0,0,0,0,0,0,0,0,3.8626,3.8652,3.889,3.8898,3.8908,3.9075,3.902,3.9218,3.9142,3.9053,3.9136,3.9134,3.9273,3.9291,3.934,3.9507,3.9517,3.9421,3.9428,3.9433,3.9436,0,0,0,0,0,0,0,3.8612,3.8642,3.893,3.8893,3.8904,3.8919,3.8944,3.9058,3.9171,3.9061,3.9066,3.9093,3.9277,3.9329,3.9345,3.952,3.9421,3.9431,3.9438,3.9442,3.9791,3.9794,0,0,0,0,0,0,3.8588,3.863,3.8923,3.8937,3.8759,3.8927,3.8956,3.9023,3.917,3.9191,3.9095,3.9095,3.931,3.9332,3.9354,3.9494,3.9433,3.9443,3.945,3.9789,3.9792,3.9795,0,0,0,0,0,0,3.858,3.8614,3.8913,3.8786,3.8825,3.8937,3.9011,3.9029,3.9081,3.9196,3.9216,3.9127,3.931,3.9338,3.9461,3.9503,3.9448,3.9459,3.9786,3.979,3.9793,3.9774,0,0,0,0,0,0,3.8568,3.861,3.8654,3.8786,3.8831,3.9018,3.9014,3.9035,3.9101,3.9104,3.9231,3.9251,3.931,3.9444,3.9472,3.9517,3.9467,3.9782,3.9787,3.9792,3.9771,3.9777,3.9781,0,0,0,0,0,3.8553,3.8637,3.8656,3.8691,3.8889,3.902,3.9046,3.9115,3.9104,3.9148,3.9223,3.9247,3.9493,3.9456,3.9488,3.9537,3.978,3.9786,3.9792,3.9769,3.9775,3.9781,0,0,0,0,0,0,3.8505,3.8656,3.8678,3.8808,3.8901,3.9031,3.9089,3.9119,3.9216,3.9214,3.9294,3.9322,3.944,3.9501,3.9456,3.9652,3.9637,3.9649,3.9609,3.9616,3.9621,3.9604,3.9477,0,0,0,0,0,3.8509,3.8606,3.8732,3.8833,3.888,3.8976,3.9036,3.9081,3.918,3.9219,3.9303,3.9396,3.9495,3.9559,3.9656,3.978,3.9809,3.983,3.9834,3.9838,3.9848,3.992,3.9931,3.9813,3.9813,3.9813,0,0,3.8519,3.8614,3.8669,3.8826,3.8904,3.9001,3.9009,3.911,3.9183,3.9234,3.9357,3.9421,3.953,3.9655,3.9714,3.9709,3.9887,3.9845,3.9847,3.9856,3.9927,3.9938,3.9948,3.9817,3.9817,3.9816,0,0,3.8587,3.8668,3.8764,3.8842,3.8961,3.9025,3.9047,3.9174,3.922,3.9344,3.9386,3.9471,3.964,3.9717,3.9778,3.9878,3.9904,3.9907,3.9933,4.0002,4.0011,4.002,4.0057,4.0069,3.9916,3.9916,3.9916,0,3.8584,3.8734,3.8808,3.8909,3.8977,3.9031,3.9127,3.9199,3.9342,3.9387,3.938,3.9595,3.9672,3.9817,3.9841,3.9888,3.9917,3.9893,4.0004,4.0014,4.0023,4.0059,4.0073,3.9916,3.9916,3.9916,3.9916,0,3.8725,3.8828,3.889,3.9031,3.9106,3.9203,3.9291,3.9358,3.9397,3.9461,3.9588,3.9683,3.9801,3.9838,3.9876,3.9989,3.9983,3.9989,3.9975,4.0033,4.0068,4.0083,3.9915,3.9916,3.9916,3.9916,0,0,3.8768,3.8951,3.8972,3.9038,3.9174,3.9254,3.9354,3.9473,3.9529,3.9625,3.9712,3.9854,3.9862,3.9931,3.9978,4.0038,4.0114,4.0038,4.0042,4.005,4.0246,4.0242,4.0257,4.0131,4.0134,4.0137,4.0237,0,3.8855,3.9039,3.9109,3.9259,3.9356,3.9409,3.9496,3.9588,3.9651,3.9741,3.9809,3.991,3.9912,3.9954,4.0017,4.0091,4.0154,4.0085,4.0212,4.0216,4.0185,4.0275,4.0271,4.0361,4.0252,4.0254,4.0256,0,3.898,3.9082,3.9242,3.9369,3.9412,3.949,3.9605,3.969,3.9796,3.9837,3.9916,3.996,4.0066,4.0045,4.0193,4.0144,4.02,4.0245,4.025,4.0266,4.024,4.0295,4.0392,4.0406,4.0278,4.0276,4.0275,0,3.8998,3.9175,3.9295,3.9349,3.9498,3.9552,3.9616,3.972,3.9788,3.9888,3.9933,4.0042,4.0103,4.0186,4.0258,4.0236,4.04,4.0384,4.0437,4.0436,4.047,4.0468,4.058,4.0503,4.0503,4.0503,4.0502,0,3.9088,3.9184,3.9305,3.9379,3.9489,3.9568,3.9673,3.9741,3.9833,3.992,3.9971,4.0051,4.0141,4.0232,4.0289,4.0404,4.0429,4.0466,4.048,4.0463,4.0458,4.0502,4.0498,4.0507,4.0506,4.0505,4.0504,0,3.9127,3.9212,3.9346,3.9478,3.9513,3.9588,3.9701,3.9774,3.984,3.9949,3.9979,4.0082,4.0193,4.0273,4.0414,4.0452,4.0576,4.0589,4.0541,4.0549,4.0599,4.0594,4.0744,4.0768,4.0673,4.0674,4.0675,0,3.9179,3.9256,3.9397,3.946,3.9526,3.9626,3.9697,3.9777,3.9848,3.9976,4.0033,4.0148,4.0244,4.0418,4.0505,4.0613,4.0631,4.0676,4.0647,4.0628,4.0634,4.063,4.0638,4.068,4.0681,4.0681,4.0682,0,3.9265,3.9304,3.9404,3.9521,3.9604,3.9699,3.9793,3.9842,3.9939,4.0016,4.0132,4.0207,4.0353,4.0467,4.0585,4.0649,4.0682,4.069,4.0709,4.0693,4.0663,4.0682,4.0555,4.0686,4.0686,4.0686,4.0685,4.0685,3.9314,3.9385,3.9497,3.9607,3.9688,3.9777,3.9853,3.993,4.0028,4.0156,4.0197,4.0317,4.0421,4.0584,4.065,4.0744,4.0743,4.0769,4.0776,4.0782,4.0782,4.0647,4.0766,4.0766,4.0766,4.0765,4.0765,0,3.9403,3.9479,3.958,3.9714,3.9801,3.9827,3.9934,4.0005,4.0111,4.0206,4.0301,4.0435,4.0546,4.0641,4.0756,4.0813,4.0832,4.0841,4.0839,4.0853,4.0776,4.075,4.0825,4.0825,4.0825,4.0825,4.0825,4.0825,3.946,3.9583,3.9636,3.9799,3.9873,3.9993,4.0053,4.0134,4.0212,4.036,4.0454,4.0516,4.0613,4.0735,4.0838,4.0863,4.0904,4.091,4.0939,4.0865,4.0858,4.0852,4.0828,4.0918,4.0918,4.101,4.1011,4.1011]}]]